West Bend, WI

5:45 PM CST on November 18, 2019 (GMT -0600)
West Bend Municipal

Weather History for KETB - August, 2019

Change the Weather History Date:

Saturday, August 3, 2019

  Actual Average Record
Temperature  
Mean Temperature 70 °F -  
Max Temperature 80 °F 80 °F 97 °F (1988)
Min Temperature 60 °F 58 °F 40 °F (1985)
Cooling Degree Days 5    
Growing Degree Days 20 (Base 50)    
Moisture  
Dew Point 64 °F    
Average Humidity 86    
Maximum Humidity 100    
Minimum Humidity 61    
Precipitation  
Precipitation 0.67 in - - ()
Sea Level Pressure  
Sea Level Pressure 30.08 in    
Wind  
Wind Speed 2 mph (NW)    
Max Wind Speed 21 mph    
Max Gust Speed 28 mph    
Visibility 10 miles    
Events Rain    
Averages and records for this station are not official NWS values.
T = Trace of Precipitation, MM = Missing Value Source: NWS Daily Summary

Daily Weather History Graph

Daily Weather History Graph

Search for Another Location

Airport or City:

Astronomy

Aug. 03, 2019 Rise Set
Actual Time 5:44 AM CDT 8:12 PM CDT
Civil Twilight 5:11 AM CDT 8:44 PM CDT
Nautical Twilight 4:31 AM CDT 9:24 PM CDT
Astronomical Twilight 3:46 AM CDT 10:09 PM CDT
Moon 8:40 AM CDT (8/3) 10:12 PM CDT (8/3)
Length of Visible Light 15h 32m
Length of Day
14h 28m
Waxing Crescent, 10% of the Moon is Illuminated
Aug 3
Waxing Crescent
Aug 7
First Quarter
Aug 15
Full
Aug 23
Last Quarter
Aug 30
New

Hourly Weather History & Observations

Time (CDT) Temp. Heat Index Dew Point Humidity Pressure Visibility Wind Dir Wind Speed Gust Speed Precip Events Conditions
12:15 AM 60.8 °F - 59.0 °F 94% 30.12 in 10.0 mi Calm Calm - N/A   Clear
12:35 AM 60.8 °F - 59.0 °F 94% 30.12 in 10.0 mi Calm Calm - N/A   Clear
12:55 AM 60.8 °F - 59.0 °F 94% 30.11 in 10.0 mi Calm Calm - N/A   Clear
1:15 AM 60.8 °F - 59.0 °F 94% 30.11 in 10.0 mi Calm Calm - N/A   Clear
1:35 AM 60.8 °F - 57.2 °F 88% 30.11 in 10.0 mi Calm Calm - N/A   Clear
1:55 AM 60.8 °F - 57.2 °F 88% 30.11 in 10.0 mi Calm Calm - N/A   Clear
2:15 AM 60.8 °F - 59.0 °F 94% 30.11 in 10.0 mi Calm Calm - N/A   Clear
2:35 AM 60.8 °F - 59.0 °F 94% 30.11 in 10.0 mi Calm Calm - N/A   Clear
2:55 AM 60.8 °F - 59.0 °F 94% 30.11 in 10.0 mi Calm Calm - N/A   Clear
3:15 AM 60.8 °F - 59.0 °F 94% 30.11 in 10.0 mi Calm Calm - N/A   Clear
3:35 AM 60.8 °F - 59.0 °F 94% 30.11 in 10.0 mi Calm Calm - N/A   Clear
3:55 AM 60.8 °F - 59.0 °F 94% 30.11 in 10.0 mi Calm Calm - N/A   Clear
4:15 AM 60.8 °F - 59.0 °F 94% 30.10 in 10.0 mi Calm Calm - N/A   Clear
4:35 AM 60.8 °F - 59.0 °F 94% 30.10 in 10.0 mi Calm Calm - N/A   Clear
4:55 AM 60.8 °F - 59.0 °F 94% 30.10 in 10.0 mi Calm Calm - N/A   Clear
5:15 AM 60.8 °F - 59.0 °F 94% 30.10 in 10.0 mi Calm Calm - N/A   Clear
5:35 AM 60.8 °F - 59.0 °F 94% 30.10 in 10.0 mi Calm Calm - N/A   Clear
5:55 AM 60.8 °F - 59.0 °F 94% 30.10 in 10.0 mi Calm Calm - N/A   Clear
6:15 AM 60.8 °F - 59.0 °F 94% 30.11 in 10.0 mi Calm Calm - N/A   Clear
6:35 AM 62.6 °F - 60.8 °F 94% 30.11 in 10.0 mi Calm Calm - N/A   Clear
6:55 AM 62.6 °F - 60.8 °F 94% 30.11 in 10.0 mi Calm Calm - N/A   Clear
7:15 AM 64.4 °F - 60.8 °F 88% 30.11 in 10.0 mi Calm Calm - N/A   Clear
7:35 AM 68.0 °F - 62.6 °F 83% 30.10 in 10.0 mi Calm Calm - N/A   Clear
7:55 AM 69.8 °F - 62.6 °F 78% 30.11 in 10.0 mi WNW 4.6 mph - N/A   Clear
8:15 AM 71.6 °F - 62.6 °F 73% 30.11 in 10.0 mi West 3.5 mph - N/A   Clear
8:35 AM 73.4 °F - 64.4 °F 73% 30.11 in 10.0 mi Calm Calm - N/A   Clear
8:55 AM 73.4 °F - 64.4 °F 73% 30.11 in 10.0 mi Calm Calm - N/A   Clear
9:15 AM 77.0 °F - 66.2 °F 69% 30.10 in 10.0 mi Calm Calm - N/A   Clear
9:35 AM 77.0 °F - 66.2 °F 69% 30.10 in 10.0 mi Calm Calm - N/A   Clear
9:55 AM 78.8 °F - 66.2 °F 65% 30.10 in 10.0 mi NNW 3.5 mph - N/A   Clear
10:15 AM 78.8 °F - 66.2 °F 65% 30.10 in 10.0 mi NNW 3.5 mph - N/A   Clear
10:35 AM 80.6 °F 83.2 °F 68.0 °F 65% 30.10 in 10.0 mi NNW 3.5 mph - N/A   Clear
10:55 AM 80.6 °F 82.7 °F 66.2 °F 61% 30.09 in 10.0 mi Calm Calm - N/A   Scattered Clouds
11:15 AM 78.8 °F - 68.0 °F 69% 30.09 in 10.0 mi NNE 4.6 mph - N/A Rain Rain
11:35 AM 73.4 °F - 69.8 °F 88% 30.09 in 10.0 mi NNE 3.5 mph - 0.04 in Rain Light Rain
11:55 AM 73.4 °F - 69.8 °F 88% 30.09 in 7.0 mi Calm Calm - 0.05 in Rain Rain
12:15 PM 73.4 °F - 71.6 °F 94% 30.09 in 10.0 mi ESE 6.9 mph - N/A Rain Light Rain
12:35 PM 77.0 °F - 68.0 °F 74% 30.08 in 7.0 mi SE 8.1 mph - N/A   Scattered Clouds
12:55 PM 75.2 °F - 68.0 °F 78% 30.08 in 10.0 mi East 12.7 mph 21.9 mph N/A   Mostly Cloudy
1:15 PM 69.8 °F - 62.6 °F 78% 30.10 in 10.0 mi ENE 20.7 mph 27.6 mph N/A Rain Light Rain
1:35 PM 68.0 °F - 60.8 °F 78% 30.08 in 0.8 mi SE 5.8 mph 24.2 mph 0.51 in Rain Heavy Rain
1:55 PM 69.8 °F - 64.4 °F 83% 30.07 in 10.0 mi West 4.6 mph - 0.52 in   Mostly Cloudy
2:15 PM 71.6 °F - 68.0 °F 88% 30.08 in 7.0 mi WNW 5.8 mph - N/A Rain Light Rain
2:35 PM 73.4 °F - 68.0 °F 83% 30.08 in 10.0 mi NE 9.2 mph 17.3 mph N/A   Overcast
2:55 PM 77.0 °F - 62.6 °F 61% 30.06 in 10.0 mi Calm Calm - N/A   Scattered Clouds
3:15 PM 77.0 °F - 64.4 °F 65% 30.05 in 10.0 mi WSW 4.6 mph - N/A   Clear
3:35 PM 75.2 °F - 68.0 °F 78% 30.05 in 10.0 mi SSW 4.6 mph - N/A   Clear
3:55 PM 73.4 °F - 69.8 °F 88% 30.05 in 10.0 mi WSW 4.6 mph - N/A   Scattered Clouds
4:15 PM 73.4 °F - 68.0 °F 83% 30.04 in 10.0 mi West 3.5 mph - N/A Rain Light Rain
4:35 PM 73.4 °F - 69.8 °F 88% 30.05 in 10.0 mi Calm Calm - N/A Rain Light Rain
4:55 PM 73.4 °F - 69.8 °F 88% 30.05 in 10.0 mi Calm Calm - 0.01 in Rain Light Rain
5:15 PM 75.2 °F - 69.8 °F 83% 30.05 in 10.0 mi NE 5.8 mph - N/A   Scattered Clouds
5:35 PM 73.4 °F - 69.8 °F 88% 30.04 in 10.0 mi Calm Calm - N/A   Scattered Clouds
5:55 PM 73.4 °F - 69.8 °F 88% 30.04 in 10.0 mi NNW 4.6 mph - N/A   Scattered Clouds
6:15 PM 75.2 °F - 69.8 °F 83% 30.04 in 10.0 mi Calm Calm - N/A   Clear
6:35 PM 77.0 °F - 68.0 °F 74% 30.05 in 10.0 mi Calm Calm - N/A   Scattered Clouds
6:55 PM 73.4 °F - 68.0 °F 83% 30.06 in 10.0 mi NNE 16.1 mph 21.9 mph N/A   Mostly Cloudy
7:15 PM 71.6 °F - 64.4 °F 78% 30.07 in 10.0 mi East 10.4 mph - N/A   Overcast
7:35 PM 68.0 °F - 64.4 °F 88% 30.06 in 7.0 mi ESE 5.8 mph - 0.01 in Rain Light Rain
7:55 PM 68.0 °F - 64.4 °F 88% 30.07 in 10.0 mi West 11.5 mph - 0.01 in   Mostly Cloudy
8:15 PM 68.0 °F - 64.4 °F 88% 30.06 in 10.0 mi West 8.1 mph - N/A Rain Light Rain
8:35 PM 68.0 °F - 64.4 °F 88% 30.03 in 10.0 mi SSW 8.1 mph - 0.04 in Rain Light Rain
8:55 PM 66.2 °F - 64.4 °F 94% 30.02 in 10.0 mi WSW 5.8 mph - 0.07 in Rain Rain
9:15 PM 66.2 °F - 64.4 °F 94% 30.03 in 10.0 mi WNW 4.6 mph - 0.01 in   Scattered Clouds
9:35 PM 66.2 °F - 64.4 °F 94% 30.05 in 10.0 mi North 6.9 mph - 0.01 in   Clear
9:55 PM 64.4 °F - 64.4 °F 100% 30.07 in 10.0 mi NNW 6.9 mph - 0.01 in   Clear
10:15 PM 64.4 °F - 64.4 °F 100% 30.06 in 10.0 mi WNW 3.5 mph - N/A   Clear
10:35 PM 64.4 °F - 62.6 °F 94% 30.07 in 10.0 mi Calm Calm - N/A   Clear
10:55 PM 64.4 °F - 62.6 °F 94% 30.07 in 10.0 mi Calm Calm - N/A   Clear
11:15 PM 62.6 °F - 62.6 °F 100% 30.07 in 7.0 mi Calm Calm - N/A   Clear
11:35 PM 62.6 °F - 62.6 °F 100% 30.07 in 1.0 mi Calm Calm - N/A   Mist
11:55 PM 62.6 °F - 62.6 °F 100% 30.06 in 7.0 mi Calm Calm - N/A   Clear